Regional Weather Roundup
Issued by NWS Newport/Morehead, NC

Current Version | Previous Version | Graphics & Text | Print | Product List | Glossary Off
Versions: 1 2 3 4 5 6 7 8 9 10 11 12 13 14 15 16 17 18 19 20 21 22 23 24 25 26 27 28 29 30 31 32 33 34 35 36 37 38 39 40 41 42 43 44 45 46 47 48 49 50

000
ASUS42 KMHX 292113
RWRMHX
WEATHER ROUNDUP FOR EASTERN NORTH CAROLINA
NATIONAL WEATHER SERVICE NEWPORT/MOREHEAD CITY NC
500 PM EDT SAT AUG 29 2015

NOTE: "FAIR" INDICATES FEW OR NO CLOUDS BELOW 12,000 FEET
WITH NO SIGNIFICANT WEATHER AND/OR OBSTRUCTIONS TO VISIBILITY

NCZ015>017-031-032-045>047-102-103-292200-
NORTH COAST

CITY           SKY/WX    TMP DP  RH WIND       PRES   REMARKS
EDENTON        FAIR      79  63  57 E3        30.14F
ELIZABETH CITY FAIR      79  63  57 NE13      30.15F
KITTY HAWK     CLOUDY    79  64  59 NE7       30.13F
MANTEO         CLOUDY    77  65  66 NE12      30.13F

$$

NCZ045>047-081-094-103-104-292200-
CENTRAL COAST

CITY           SKY/WX    TMP DP  RH WIND       PRES   REMARKS
FRISCO         CLOUDY    79  70  74 NE10G20   30.11F
SWANQUARTER    NOT AVBL

$$

NCZ095-097-098-100-101-292200-
SOUTHERN COAST

CITY           SKY/WX    TMP DP  RH WIND       PRES   REMARKS
BEAUFORT       FAIR      80  71  74 NE9       30.11F
CEDAR ISLAND   NOT AVBL
JACKSONVILLE   FAIR      85  61  44 N13       30.11F
PINEY ISLAND   FLURRIES N/A N/A N/A NE15      30.11F
WILMINGTON     CLOUDY    86  67  52 N8        30.11F


$$

NCZ011>013-027>030-043-044-078>080-089-090>093-098-292200-
COASTAL PLAIN

CITY           SKY/WX    TMP DP  RH WIND       PRES   REMARKS
AHOSKIE        FAIR      82  59  45 CALM      30.14F
CLINTON        FAIR      85  61  44 N5        30.13F
ELIZABETHTOWN  FAIR      85  58  39 CALM      30.12F
GOLDSBORO      FAIR      85  59  41 NE6       30.13F
GREENVILLE     FAIR      82  63  51 E7        30.15F
HAVELOCK       PTSUNNY   85  65  51 NE14      30.12F
KENANSVILLE      N/A     84  57  39 CALM      30.14F
KINSTON        FAIR      84  61  45 N7        30.14F
NEW BERN       FAIR      83  62  49 NE12      30.13F
RICHLANDS      FAIR      84  61  45 N8        30.12F
ROCKY MOUNT    FAIR      87  53  31 N5        30.14F
WASHINGTON     FAIR      80  62  54 NE6       30.14S
WHITEVILLE     FAIR      84  61  45 N6        30.11F

$$

AMZ130-135-150-152-154-156-158-170-250-252-270-ANZ085-086-088-633-658-670-292200-
MARINE OBSERVATIONS

STATION/POSITION TIME  TEMP    WIND        PRES    WAVE   SWELL
                       AIR SEA DIR/SP/G            HT/PER HT/PER
                 (UTC) (F)     (DEG/KT/KT) (MB)    (FT/S) (FT/S)
CHESAPEAKE LIGHT 2100   76      70/ 10/ 11 1021.9
64 E VA BEACH    2050   77 77   60/ 14/ 16 1020.3    5/11   3/11
DUCK             NOT AVBL
2 E DUCK         2011      79                N/A     4/11   2/11
OREGON INLET     NOT AVBL
13E OREGON INLT  2100      78                N/A     5/10   2/11
HATTERAS CG      NOT AVBL
DIAMOND BUOY     2050   78 82   20/ 19/ 23 1018.8    5/11   3/11
CAPE LOOKOUT     2100   79      40/ 16/ 19 1019.2
BEAUFORT LAB     NOT AVBL
30 SE NEW RVR IN 2008   81 82   50/ 16/ 19 1019.7
30 SE NEW RVR IN 2025      82                N/A     5/11   2/11
27 SE WRIGHTSVLE 2000   78 82   40/ 14/ 16   N/A
5 SE WRIGHTSVLE  2008   82 82   40/  8/ 12 1019.9
225 S CAPE HAT   2050   83 84  300/  2/  4 1019.1    5/11   5/11
41 SE CHARLESTON 2050   80 85   40/ 14/ 16 1018.9    4/11   2/11

$$


USA.gov is the U.S. government's official web portal to all federal, state and local government web resources and services.